Other Public Products
Issued by NWS Grand Forks, ND

Home | Current Version | Previous Version | Graphics & Text | Print | Product List | Glossary On
Versions: 1 2 3 4 5 6 7 8 9 10 11 12 13 14 15 16 17 18 19 20 21 22 23 24 25 26 27 28 29 30 31 32 33 34 35 36 37 38 39 40 41 42 43 44 45 46 47 48 49 50
000
FPUS83 KFGF 262110
OPUFGF
PRAIRIE TO PINES WEATHER ROUNDUP
NATIONAL WEATHER SERVICE EASTERN NORTH DAKOTA/GRAND FORKS ND
400 PM CDT TUE JUL 26 2016

 **SATELLITE DATA USED TO AUGMENT SKY COVER AT AUTOMATED STATIONS**
 *****  WEATHER ACROSS EASTERN NORTH DAKOTA  *****

CITY           SKY/WX    TMP DP  RH WIND       PRES   REMARKS
GRAND FORKS    CLOUDY    87  65  47 N8        29.95R
GRAND FORKS AF NOT AVBL
GRAND CITY NWS   N/A     86 N/A N/A NE6         N/A
BUXTON           N/A     87  65  47 NE8         N/A
DEVILS LAKE    CLOUDY    81  64  56 VRB3      30.00F
FARGO          CLOUDY    84  71  65 E6        29.94S
WAHPETON ARPT  CLOUDY    81  63  54 SW8       29.97R
$$

 *****  WEATHER ACROSS CENTRAL AND WESTERN NORTH DAKOTA  *****

CITY           SKY/WX    TMP DP  RH WIND       PRES   REMARKS
JAMESTOWN      CLOUDY    73  66  78 SW5       29.96F
BISMARCK       MOSUNNY   83  66  56 NE16      29.99R
MINOT          PTSUNNY   82  63  52 N17       30.02F
MINOT AFB      CLOUDY    79  60  51 N16       30.02F
GARRISON         N/A     75  66  73 NE7       30.02S
WILLISTON      CLOUDY    81  59  47 N14       30.08R
DICKINSON      MOSUNNY   76  61  59 NE13      30.06R
HETTINGER      SUNNY     87  55  33 N15G21    30.04R
$$

 *****  OTHER OBSERVATIONS NORTHEAST NORTH DAKOTA  *****

CITY           SKY/WX    TMP DP  RH WIND       PRES   REMARKS
WALHALLA       NOT AVBL
LANGDON        MOCLDY    77  64  65 NE14      30.04R
CAVALIER       FAIR      81  64  57 NE10      29.99R
GRAFTON        MOCLDY    82  70  65 N8        29.99R
CANDO          NOT AVBL
FORT TOTTEN      N/A     83  65  53 E2        29.95S
ROLLA          MOCLDY    73  64  73 NE12      30.06R
RUGBY          NOT AVBL
 ***** THE ABOVE OBSERVATIONS ARE NON NWS ARE NOT QUALITY
        CONTROLLED AND MAY MIS-REPORT RAIN FOR SNOW...
$$

 *****  OTHER OBSERVATIONS SOUTHEAST NORTH DAKOTA *****

CITY           SKY/WX    TMP DP  RH WIND       PRES   REMARKS
COOPERSTOWN    NOT AVBL
VALLEY CITY    MOCLDY    79  73  83 SW5       29.99F
OAKES            N/A    N/A N/A N/A MISG        N/A
GWINNER        FAIR      72  64  78 SW10      30.00R
BUFFALO          N/A     84  65  51 NE2         N/A
WYNDMERE       NOT AVBL
 ***** THE ABOVE OBSERVATIONS ARE NON NWS ARE NOT QUALITY
       CONTROLLED AND MAY MIS-REPORT RAIN FOR SNOW...
$$

  *****  WEATHER ACROSS NORTHERN MINNESOTA  *****

CITY           SKY/WX    TMP DP  RH WIND       PRES   REMARKS
FLAG ISLAND    SUNNY     79  55  44 N12       29.96F
WARROAD        SUNNY     79  64  61 E8        29.99S
ROSEAU         SUNNY     81  66  61 NE9       29.98S
HALLOCK        CLOUDY    82  66  57 N12       29.96S
THF RVR FALLS  SUNNY     84  62  47 VRB3      29.99R
HALSTAD          N/A     85  70  59 E6          N/A  HX  90
FOSSTON        CLOUDY    84  66  54 N8        29.98R
BAUDETTE       SUNNY     82  62  50 N13       29.97F
WASKISH        SUNNY     86  64  48 W6        29.96R
CROOKSTON      CLOUDY    84  63  48 E6        29.97R
$$
  *****  WEATHER ACROSS CENTRAL AND WEST MINNESOTA  *****

CITY           SKY/WX    TMP DP  RH WIND       PRES   REMARKS
BEMIDJI        MOSUNNY   84  66  54 NE5       29.96S
PARK RAPIDS    CLOUDY    80  66  62 SW6       29.98R
WADENA         MOSUNNY   79  68  69 CALM      29.97F
DETROIT LAKES  CLOUDY    81  68  65 S3        29.99S
MOORHEAD       CLOUDY    81  70  69 CALM      29.95F
FERGUS FALLS   CLOUDY    84  66  54 W3        29.97S
ELBOW LAKE     FAIR      83  71  68 W10       29.98S HAZE
MORRIS MN      CLOUDY    84  68  58 W13G18    29.98R
STAPLES        MOSUNNY   81  64  57 NW5       29.98S
WHEATON        NOT AVBL
$$
  *****  WEATHER ELSEWHERE ACROSS MINNESOTA  *****

CITY           SKY/WX    TMP DP  RH WIND       PRES   REMARKS
DULUTH         CLOUDY    82  67  60 W10       29.97S
INTRNTL FALLS  MOSUNNY   81  64  56 NE9       29.95S
ELY            CLOUDY    81  61  50 CALM      29.96F
CLOQUET        PTSUNNY   81  64  57 NW6       29.97F
BRAINERD       CLOUDY    81  66  60 NW3       29.98S
HIBBING        CLOUDY    78  68  71 SW8       29.96F
ALEXANDRIA     MOSUNNY   86  71  60 SW14      29.99S HX  91
SAINT CLOUD    SUNNY     87  71  58 SW13      29.98S HX  93
MINNEAPOLIS    MOSUNNY   90  63  40 W18G25    29.98S HX  91
$$

  *****  WEATHER ACROSS SOUTH DAKOTA  *****

CITY           SKY/WX    TMP DP  RH WIND       PRES   REMARKS
SIOUX FALLS    CLOUDY    86  64  47 S13G20    30.02S
BROOKINGS      CLOUDY    82  67  60 S7        30.03S
WATERTOWN      RAIN      73  67  81 SW7       30.06R
HURON          CLOUDY    71  66  84 E12       29.99F
SISSETON         N/A     74  65  73 NW8       29.98R
ABERDEEN       LGT RAIN  70  65  84 E6        30.02S
MITCHELL       CLOUDY    87  62  43 SE8       29.98R
PIERRE         CLOUDY    93  60  33 E16       29.93S HX  93
MOBRIDGE       PTSUNNY   86  66  51 E14       29.94R
RAPID CITY     CLOUDY    90  57  32 NE10      30.03S
$$

  *****  SOME WEATHER IN NEARBY STATES *****

CITY           SKY/WX    TMP DP  RH WIND       PRES   REMARKS
GLASGOW MT     SUNNY     83  60  45 E14G24    30.05S
GREAT FALLS MT SUNNY     89  45  21 VRB5      30.03F
CHEYENNE WY    CLOUDY    88  38  17 VRB6      30.19F
SCOTTSBLUFF NE SUNNY     93  52  24 E6        30.00F HX  90
OMAHA NE       PTSUNNY   86  64  47 E8        30.02F
DES MOINES IA  MOSUNNY   86  64  47 E8        30.02F
DAVENPORT IA   SUNNY     85  63  47 VRB5      30.03F
CHICAGO IL     MOSUNNY   85  64  49 E7        30.01F
EAU CLAIRE WI  SUNNY     89  63  41 SW16      29.97F HX  90
LA CROSSE WI   SUNNY     88  66  48 SW6       30.00F HX  90
$$

  *****  SOME NATIONAL WEATHER *****

CITY           SKY/WX    TMP DP  RH WIND       PRES   REMARKS
LA GUARDIA NY  PTSUNNY   90  64  42 W8        29.85S HX  91
RALEIGH NC     MOSUNNY   96  73  47 W9        29.93F HX 105
ATLANTA GA     MOSUNNY   95  58  28 SE8       30.01F HX  94
NEW ORLEANS LA LGT RAIN  80  75  84 S15       29.92F
OKLAHOMA CITY  PTSUNNY   89  72  56 NW6       29.95F HX  96
ALBUQUERQUE NM MOSUNNY   89  52  28 W8        30.14F
SALT LAKE CITY MOSUNNY  103  41  12 N7G20     30.00F HX  98
LOS ANGELES CA MOSUNNY   77  64  64 W15       29.88F
BOISE ID       SUNNY     95  44  17 NW12      29.97F HX  91
SEATTLE WA     MOSUNNY   69  58  67 VRB5      30.17F
$$

*** WEATHER ACROSS MANITOBA...SASKATCHEWAN AND ONTARIO ***
                ***ONTARIO***

CITY           SKY/WX    TMP DP  RH WIND       PRES   REMARKS
GERALDTON      MOSUNNY   79  50  36 W13G23    29.88R
THUNDER BAY    PTSUNNY   86  63  45 NW12      29.86F
SIOUX LOOKOUT  MOSUNNY   77  55  47 NW12G23   29.95F
TORONTO        PTSUNNY   84  61  45 E7        29.94F
BIG TROUT LK   NOT AVBL
PICKLE LAKE    PTSUNNY   73  50  43 VRB8G21   29.91R
DRYDEN         SUNNY     79  50  36 NW12G20   29.96F
KENORA         MOSUNNY   79  50  36 NW13      29.99F
$$
                *** MANITOBA***

CITY           SKY/WX    TMP DP  RH WIND       PRES   REMARKS
BRANDON        PTSUNNY   79  59  50 VRB12     30.04F
DAUPHIN        MOSUNNY   75  59  57 NE16      30.08S
ISLAND LAKE    CLOUDY    61  55  82 NW10G17   30.07R
PILOT MOUND      N/A     75  57  53 NE9         N/A
THE PAS        MOSUNNY   72  45  37 N5        30.12S
THOMPSON       CLOUDY    63  52  67 N6        30.12R
WINNIPEG       MOSUNNY   79  55  44 N9        30.00F
LYNN LAKE      SUNNY     70  39  32 MISG      30.12S
CHURCHILL      PTSUNNY   54  48  82 N15       30.08R
GILLAM         CLOUDY    59  50  72 N14       30.09R
$$
                ***SASKATCHEWAN***

CITY           SKY/WX    TMP DP  RH WIND       PRES   REMARKS
ESTEVAN        PTSUNNY   77  59  53 N5        30.08
KINDERSLEY     MOSUNNY   73  57  56 SE10      30.13S
LLOYDMINSTER   MOSUNNY   77  54  44 S8G18     30.10F
PRINCE ALBERT  MOSUNNY   75  55  50 CALM      30.12F
REGINA         PTSUNNY   75  50  41 N6        30.11S
YORKTON        SUNNY     72  52  49 N8        30.10F
N. BATTLEFORD  SUNNY     77  50  38 S5        30.14S   C1F1C2F2C3F3C4F4C5F5C6F6C7F7C8F8C9F9CaFaCbFbCcFcCdFdCe!



USA.gov is the U.S. government's official web portal to all federal, state and local government web resources and services.